Chippewa, MI

7:15 AM EDT on October 21, 2019 (GMT -0400)
Chippewa County International

Weather History for KCIU - August, 2019

Change the Weather History Date:

Wednesday, August 21, 2019

  Actual Average Record
Temperature  
Mean Temperature 64 °F -  
Max Temperature 73 °F 74 °F 82 °F (2013)
Min Temperature 52 °F 47 °F 37 °F (1992)
Degree Days  
Heating Degree Days 2    
Growing Degree Days 14 (Base 50)    
Moisture  
Dew Point 55 °F    
Average Humidity 80    
Maximum Humidity 100    
Minimum Humidity 37    
Precipitation  
Precipitation 0.00 in - - ()
Sea Level Pressure  
Sea Level Pressure 29.90 in    
Wind  
Wind Speed 7 mph ()    
Max Wind Speed 21 mph    
Max Gust Speed 31 mph    
Visibility 7.9 miles    
Events Fog    
Averages and records for this station are not official NWS values.
T = Trace of Precipitation, MM = Missing Value Source: Averaged Metar Reports

Daily Weather History Graph

Daily Weather History Graph

Search for Another Location

Airport or City:

Astronomy

Aug. 21, 2019 Rise Set
Actual Time 6:44 AM EDT 8:37 PM EDT
Civil Twilight 6:11 AM EDT 9:09 PM EDT
Nautical Twilight 5:32 AM EDT 9:48 PM EDT
Astronomical Twilight 4:49 AM EDT 10:31 PM EDT
Moon 11:34 PM EDT 12:37 PM EDT
Length of Visible Light 14h 57m
Length of Day
13h 52m
Waning Gibbous, 69% of the Moon is Illuminated
Aug 21
Waning Gibbous
Aug 23
Last Quarter
Aug 30
New
Sep 5
First Quarter
Sep 14
Full

Hourly Weather History & Observations

Time (EDT) Temp. Dew Point Humidity Pressure Visibility Wind Dir Wind Speed Gust Speed Precip Events Conditions
12:56 AM 63.0 °F 60.1 °F 90% 29.89 in 10.0 mi WSW 5.8 mph - N/A   Clear
1:56 AM 61.0 °F 60.1 °F 97% 29.89 in 10.0 mi WSW 5.8 mph - N/A   Clear
2:42 AM 60.8 °F 60.8 °F 100% 29.90 in 1.8 mi SW 4.6 mph - N/A   Scattered Clouds
2:48 AM 60.8 °F 60.8 °F 100% 29.90 in 0.8 mi West 6.9 mph - N/A   Mostly Cloudy
2:56 AM 59.0 °F 59.0 °F 100% 29.90 in 0.5 mi WNW 8.1 mph - N/A Fog Fog
3:07 AM 60.8 °F 59.0 °F 94% 29.91 in 0.8 mi WNW 9.2 mph - N/A   Overcast
3:09 AM 60.8 °F 59.0 °F 94% 29.90 in 1.2 mi WNW 9.2 mph - N/A   Overcast
3:11 AM 60.8 °F 59.0 °F 94% 29.90 in 4.0 mi WNW 8.1 mph - N/A   Overcast
3:46 AM 60.8 °F 60.8 °F 100% 29.89 in 10.0 mi WNW 3.5 mph - N/A   Scattered Clouds
3:56 AM 61.0 °F 60.1 °F 97% 29.88 in 10.0 mi NNW 6.9 mph - N/A   Clear
4:56 AM 60.1 °F 59.0 °F 96% 29.88 in 10.0 mi NNW 6.9 mph - N/A   Clear
5:56 AM 61.0 °F 60.1 °F 97% 29.87 in 10.0 mi NNW 3.5 mph - N/A   Clear
6:53 AM 57.2 °F 57.2 °F 100% 29.89 in 1.5 mi West 4.6 mph - N/A   Clear
6:56 AM 57.9 °F 57.9 °F 100% 29.88 in 0.8 mi West 3.5 mph - N/A   Clear
7:06 AM 57.2 °F 57.2 °F 100% 29.89 in 1.5 mi WNW 3.5 mph - N/A   Partly Cloudy
7:08 AM 57.2 °F 57.2 °F 100% 29.89 in 4.0 mi WNW 3.5 mph - N/A   Partly Cloudy
7:19 AM 60.8 °F 59.0 °F 94% 29.88 in 10.0 mi WNW 3.5 mph - N/A   Mostly Cloudy
7:56 AM 62.1 °F 60.1 °F 93% 29.87 in 10.0 mi WNW 6.9 mph - N/A   Overcast
8:56 AM 62.1 °F 60.1 °F 93% 29.87 in 10.0 mi WNW 4.6 mph - N/A   Overcast
9:11 AM 62.6 °F 60.8 °F 94% 29.88 in 10.0 mi West 4.6 mph - N/A   Overcast
9:35 AM 64.4 °F 59.0 °F 83% 29.88 in 10.0 mi NW 11.5 mph - N/A   Overcast
9:56 AM 64.0 °F 57.0 °F 78% 29.88 in 10.0 mi North 9.2 mph - N/A   Overcast
10:19 AM 64.4 °F 55.4 °F 73% 29.90 in 10.0 mi NW 11.5 mph - N/A   Overcast
10:26 AM 64.4 °F 55.4 °F 73% 29.91 in 10.0 mi NNW 10.4 mph - N/A   Overcast
10:42 AM 64.4 °F 57.2 °F 77% 29.91 in 10.0 mi Variable 4.6 mph - N/A   Overcast
10:56 AM 64.9 °F 57.0 °F 75% 29.90 in 10.0 mi NNW 4.6 mph - N/A   Overcast
11:56 AM 66.0 °F 55.9 °F 70% 29.90 in 10.0 mi NW 8.1 mph - N/A   Overcast
12:56 PM 70.0 °F 55.0 °F 59% 29.89 in 10.0 mi NNW 11.5 mph - N/A   Overcast
1:56 PM 69.1 °F 54.0 °F 58% 29.89 in 10.0 mi NNW 12.7 mph - N/A   Mostly Cloudy
2:56 PM 73.0 °F 46.9 °F 39% 29.88 in 10.0 mi NW 17.3 mph 31.1 mph N/A   Partly Cloudy
3:56 PM 73.9 °F 46.0 °F 37% 29.86 in 10.0 mi NW 18.4 mph 24.2 mph N/A   Clear
4:56 PM 72.0 °F 48.0 °F 43% 29.86 in 10.0 mi NW 20.7 mph 28.8 mph N/A   Partly Cloudy
5:56 PM 68.0 °F 45.0 °F 43% 29.91 in 10.0 mi NNW 20.7 mph 31.1 mph N/A   Clear
6:56 PM 66.9 °F 46.0 °F 47% 29.92 in 10.0 mi NW 17.3 mph 28.8 mph N/A   Clear
7:56 PM 63.0 °F 46.9 °F 56% 29.92 in 10.0 mi NNW 15.0 mph 27.6 mph N/A   Clear
8:56 PM 60.1 °F 48.0 °F 64% 29.95 in 10.0 mi NW 10.4 mph - N/A   Clear
9:56 PM 57.0 °F 48.0 °F 72% 29.96 in 10.0 mi West 6.9 mph - N/A   Clear
10:56 PM 54.0 °F 46.9 °F 77% 29.95 in 10.0 mi WNW 6.9 mph - N/A   Clear
11:56 PM 52.0 °F 46.0 °F 80% 29.96 in 10.0 mi WSW 6.9 mph - N/A   Clear